Downstream station:
SHEF ID: BZRK1 SF COTTONWOOD R NR BAZAAR, KS
STATION TYPE:
PRECIP STAGE RIV-FLOW BAT-LOAD
in ft cfs volt
Ccp-Rev Ccp-Rev Ccp-Rev Ccp-Rev
(US/Central)
10/19 00:00 0.00 7.41 45 12.71
10/19 01:00 0.00 7.41 45 12.71
10/19 02:00 0.00 7.40 44 12.71
10/19 03:00 0.00 7.39 44 12.71
10/19 04:00 0.00 7.39 44 12.65
10/19 05:00 0.00 7.39 44 12.65
10/19 06:00 0.00 7.38 43 12.65
10/19 07:00 0.00 7.38 43 12.60
10/19 08:00 0.00 7.38 43 12.60
10/19 09:00 0.00 7.38 43 12.71
10/19 10:00 0.00 7.36 42 13.83
10/19 11:00 0.00 7.35 41 14.06
10/19 12:00 0.00 7.35 41 13.94
10/19 13:00 0.00 7.35 41 13.83
10/19 14:00 0.00 7.34 40 13.77
10/19 15:00 0.00 7.33 39 13.71
10/19 16:00 0.00 7.33 39 13.71
10/19 17:00 0.00 7.33 39 13.65
10/19 18:00 0.00 7.32 39 13.65
10/19 19:00 0.00 7.31 38 13.07
10/19 20:00 0.00 7.31 38 12.83
10/19 21:00 0.00 7.32 39 12.77
10/19 22:00 0.00 7.32 39 12.77
10/19 23:00 0.00 7.33 39 12.77